YO4FZV-11 Weather Reports


Display with metric or nautical units.
time (UTC)temp
F
wind
direction
speed
MPH
gust
MPH
rain 1hr
in
rain 24hr
in
rain mn
in
humidity
%
barometer
mb
20260507222254 53 157 8.0 11.0 0.00 0.00 0.00 86 1015.1
20260507221754 53 180 5.0 11.0 0.00 0.00 0.00 87 1015.2
20260507221254 53 157 7.0 11.0 0.00 0.00 0.00 86 1015.2
20260507220754 53 157 5.0 8.0 0.00 0.00 0.00 87 1015.2
20260507220254 53 157 6.0 10.0 0.00 0.00 0.00 86 1015.1
20260507215754 53 135 4.0 12.0 0.00 0.00 0.00 86 1015.0
20260507215254 54 157 12.0 12.0 0.00 0.00 0.00 86 1015.1
20260507214754 54 202 4.0 10.0 0.00 0.00 0.00 86 1015.1
20260507214254 54 157 7.0 9.0 0.00 0.00 0.00 86 1015.1
20260507213754 54 180 9.0 14.0 0.00 0.00 0.00 86 1015.1
20260507213254 54 180 6.0 9.0 0.00 0.00 0.00 86 1015.1
20260507212754 53 180 4.0 11.0 0.00 0.00 0.00 85 1015.2
20260507212254 54 202 4.0 9.0 0.00 0.00 0.00 86 1015.2
20260507211754 53 157 9.0 11.0 0.00 0.00 0.00 86 1015.2
20260507211254 53 180 10.0 12.0 0.00 0.00 0.00 85 1015.3
20260507210754 54 135 4.0 9.0 0.00 0.00 0.00 86 1015.3
20260507210254 54 202 4.0 9.0 0.00 0.00 0.00 86 1015.3
20260507205754 54 157 7.0 9.0 0.00 0.00 0.00 86 1015.3
20260507205254 54 180 9.0 15.0 0.00 0.00 0.00 85 1015.3
20260507204754 54 202 6.0 12.0 0.00 0.00 0.00 86 1015.3
20260507204254 54 157 3.0 14.0 0.00 0.00 0.00 86 1015.3
20260507203754 54 202 5.0 10.0 0.00 0.00 0.00 86 1015.3
20260507203254 54 157 4.0 8.0 0.00 0.00 0.00 86 1015.2
20260507202754 54 180 2.0 13.0 0.00 0.00 0.00 86 1015.2
20260507202254 54 180 8.0 8.0 0.00 0.00 0.00 86 1015.2
20260507201754 54 157 4.0 9.0 0.00 0.00 0.00 86 1015.1
20260507201254 54 202 7.0 10.0 0.00 0.00 0.00 86 1015.0
20260507200754 54 157 12.0 12.0 0.00 0.00 0.00 86 1015.1
20260507200254 54 135 3.0 9.0 0.00 0.00 0.00 86 1015.1
20260507195754 54 157 3.0 10.0 0.00 0.00 0.00 86 1015.1
20260507195254 54 202 7.0 10.0 0.00 0.00 0.00 87 1015.2
20260507194754 54 180 10.0 11.0 0.00 0.00 0.00 86 1015.2
20260507194254 54 157 10.0 11.0 0.00 0.00 0.00 86 1015.2
20260507193754 54 157 8.0 8.0 0.00 0.00 0.00 86 1015.2
20260507193254 54 157 5.0 11.0 0.00 0.00 0.00 86 1015.2
20260507192754 54 157 7.0 9.0 0.00 0.00 0.00 86 1015.3
20260507192254 54 157 4.0 10.0 0.00 0.00 0.00 86 1015.3
20260507191754 54 157 8.0 10.0 0.00 0.00 0.00 87 1015.3
20260507191255 54 157 5.0 8.0 0.00 0.00 0.00 86 1015.3
20260507190754 54 135 6.0 10.0 0.00 0.00 0.00 86 1015.2
20260507190254 54 157 4.0 8.0 0.00 0.00 0.00 86 1015.2
20260507185754 54 180 2.0 8.0 0.00 0.00 0.00 86 1015.2
20260507185254 54 180 5.0 10.0 0.00 0.00 0.00 86 1015.2
20260507184755 54 135 7.0 10.0 0.00 0.00 0.00 86 1015.2
20260507184254 54 157 8.0 9.0 0.00 0.00 0.00 86 1015.2
20260507183754 54 157 4.0 10.0 0.00 0.00 0.00 86 1015.2
20260507183254 54 157 10.0 10.0 0.00 0.00 0.00 85 1015.3
20260507182754 54 180 5.0 9.0 0.00 0.00 0.00 86 1015.1
20260507182254 54 135 5.0 12.0 0.00 0.00 0.00 86 1015.1
20260507181754 54 180 3.0 12.0 0.00 0.00 0.00 85 1015.1
20260507181254 54 157 6.0 12.0 0.00 0.00 0.00 84 1015.1
20260507180754 55 180 10.0 11.0 0.00 0.00 0.00 85 1015.1
20260507180254 55 180 5.0 11.0 0.00 0.00 0.00 85 1015.0
20260507175754 55 180 4.0 10.0 0.00 0.00 0.00 85 1015.0
20260507175254 55 157 5.0 10.0 0.00 0.00 0.00 85 1015.0
20260507174754 55 180 7.0 12.0 0.00 0.00 0.00 85 1014.9
20260507174254 55 157 4.0 10.0 0.00 0.00 0.00 85 1015.0
20260507173754 55 157 6.0 9.0 0.00 0.00 0.00 86 1014.9
20260507173254 55 180 9.0 11.0 0.00 0.00 0.00 86 1014.9
20260507172754 55 157 10.0 10.0 0.00 0.00 0.00 85 1014.9
20260507172254 55 157 6.0 11.0 0.00 0.00 0.00 86 1014.8
20260507171754 55 157 4.0 11.0 0.00 0.00 0.00 86 1014.8
20260507171254 55 135 8.0 12.0 0.00 0.00 0.00 86 1014.8
20260507170754 55 157 6.0 8.0 0.00 0.00 0.00 85 1014.9
20260507170254 55 157 8.0 12.0 0.00 0.00 0.00 85 1014.8
20260507165754 55 157 6.0 13.0 0.00 0.00 0.00 85 1014.8
20260507165254 55 157 6.0 11.0 0.00 0.00 0.00 85 1014.9
20260507164754 55 157 5.0 11.0 0.00 0.00 0.00 84 1015.0
20260507164254 55 157 6.0 10.0 0.00 0.00 0.00 84 1014.9
20260507163754 55 157 10.0 10.0 0.00 0.00 0.00 84 1014.9
20260507163254 55 135 4.0 10.0 0.00 0.00 0.00 84 1014.9
20260507162754 55 157 5.0 8.0 0.00 0.00 0.00 83 1014.9
20260507162254 55 157 6.0 11.0 0.00 0.00 0.00 83 1014.8
20260507161754 55 157 5.0 9.0 0.00 0.00 0.00 82 1014.8
20260507161254 55 180 6.0 10.0 0.00 0.00 0.00 82 1014.8
20260507160754 55 157 5.0 11.0 0.00 0.00 0.00 82 1014.9
20260507160254 55 157 6.0 17.0 0.00 0.00 0.00 82 1015.0
20260507155754 56 180 10.0 11.0 0.00 0.00 0.00 81 1015.1
20260507155255 56 180 3.0 12.0 0.00 0.00 0.00 81 1015.0
20260507154754 56 180 4.0 13.0 0.00 0.00 0.00 80 1015.0
20260507154254 57 202 8.0 10.0 0.00 0.00 0.00 79 1015.1
20260507153754 58 180 5.0 9.0 0.00 0.00 0.00 80 1015.1
20260507153255 58 157 8.0 10.0 0.00 0.00 0.00 79 1015.2
20260507152755 58 112 8.0 12.0 0.00 0.00 0.00 79 1015.1
20260507152255 59 157 10.0 14.0 0.00 0.00 0.00 79 1015.2
20260507151754 59 157 8.0 13.0 0.00 0.00 0.00 79 1015.3
20260507151254 59 157 11.0 11.0 0.00 0.00 0.00 78 1015.4
20260507150755 59 180 4.0 12.0 0.00 0.00 0.00 78 1015.3
20260507150255 59 157 10.0 15.0 0.00 0.00 0.00 78 1015.4
20260507145755 59 157 7.0 14.0 0.00 0.00 0.00 78 1015.4
20260507145255 59 157 10.0 13.0 0.00 0.00 0.00 78 1015.3
20260507144755 59 180 10.0 11.0 0.00 0.00 0.00 76 1015.5
20260507144255 60 135 4.0 12.0 0.00 0.00 0.00 77 1015.5
20260507143755 60 157 9.0 13.0 0.00 0.00 0.00 77 1015.6
20260507143255 60 135 11.0 15.0 0.00 0.00 0.00 76 1015.5
20260507142755 60 135 5.0 12.0 0.00 0.00 0.00 77 1015.5
20260507142255 60 135 5.0 12.0 0.00 0.00 0.00 77 1015.5
20260507141755 60 157 7.0 13.0 0.00 0.00 0.00 75 1015.6
20260507141255 60 180 9.0 13.0 0.00 0.00 0.00 76 1015.6
20260507140755 60 157 13.0 13.0 0.00 0.00 0.00 75 1015.6
20260507140255 60 157 6.0 12.0 0.00 0.00 0.00 75 1015.7
20260507135755 60 157 7.0 11.0 0.00 0.00 0.00 76 1015.7
20260507135255 61 157 7.0 12.0 0.00 0.00 0.00 75 1015.7
20260507134755 60 157 9.0 12.0 0.00 0.00 0.00 74 1015.6
20260507134255 61 157 7.0 14.0 0.00 0.00 0.00 74 1015.6
20260507133755 61 112 5.0 14.0 0.00 0.00 0.00 74 1015.7
20260507133255 61 180 9.0 13.0 0.00 0.00 0.00 74 1015.7
20260507132755 61 157 10.0 15.0 0.00 0.00 0.00 74 1015.7
20260507132255 61 135 5.0 16.0 0.00 0.00 0.00 74 1015.7
20260507131755 61 157 14.0 14.0 0.00 0.00 0.00 74 1015.7
20260507131255 61 157 10.0 13.0 0.00 0.00 0.00 73 1015.8
20260507130755 61 157 12.0 15.0 0.00 0.00 0.00 74 1015.9
20260507130255 61 157 10.0 16.0 0.00 0.00 0.00 74 1015.8
20260507125755 62 157 9.0 15.0 0.00 0.00 0.00 72 1016.0
20260507125255 62 135 8.0 14.0 0.00 0.00 0.00 71 1016.0
20260507124755 63 157 7.0 12.0 0.00 0.00 0.00 71 1016.0
20260507124255 64 157 11.0 13.0 0.00 0.00 0.00 69 1015.9
20260507123755 64 135 11.0 16.0 0.00 0.00 0.00 71 1015.9
20260507123255 63 157 9.0 13.0 0.00 0.00 0.00 72 1016.0
20260507122755 62 180 10.0 14.0 0.00 0.00 0.00 72 1016.1
20260507122255 62 157 7.0 15.0 0.00 0.00 0.00 72 1016.1
20260507121755 63 157 9.0 16.0 0.00 0.00 0.00 69 1016.2
20260507121255 64 157 10.0 13.0 0.00 0.00 0.00 70 1016.3
20260507120755 64 135 8.0 12.0 0.00 0.00 0.00 68 1016.3
20260507120255 64 157 6.0 15.0 0.00 0.00 0.00 69 1016.4
20260507115755 64 157 8.0 10.0 0.00 0.00 0.00 69 1016.4
20260507115255 64 157 9.0 10.0 0.00 0.00 0.00 69 1016.4
20260507114755 64 180 10.0 13.0 0.00 0.00 0.00 69 1016.4
20260507114255 64 157 9.0 13.0 0.00 0.00 0.00 68 1016.5
20260507113755 64 157 13.0 13.0 0.00 0.00 0.00 70 1016.5
20260507113255 65 157 11.0 14.0 0.00 0.00 0.00 68 1016.4
20260507112755 65 135 7.0 14.0 0.00 0.00 0.00 67 1016.5
20260507112255 65 157 7.0 12.0 0.00 0.00 0.00 66 1016.4
20260507111755 66 157 8.0 12.0 0.00 0.00 0.00 66 1016.4
20260507111255 66 157 10.0 12.0 0.00 0.00 0.00 65 1016.4
20260507110755 66 135 12.0 12.0 0.00 0.00 0.00 67 1016.4
20260507110255 66 157 11.0 12.0 0.00 0.00 0.00 65 1016.5
20260507105755 66 135 5.0 11.0 0.00 0.00 0.00 65 1016.4
20260507105255 66 157 10.0 11.0 0.00 0.00 0.00 66 1016.4
20260507104755 66 135 6.0 12.0 0.00 0.00 0.00 66 1016.4
20260507104255 66 180 4.0 11.0 0.00 0.00 0.00 66 1016.3
20260507103755 66 135 11.0 12.0 0.00 0.00 0.00 67 1016.4
20260507103255 66 112 6.0 10.0 0.00 0.00 0.00 67 1016.4
20260507102755 65 135 7.0 12.0 0.00 0.00 0.00 67 1016.4
20260507102255 65 157 10.0 12.0 0.00 0.00 0.00 68 1016.4
20260507101755 65 157 6.0 13.0 0.00 0.00 0.00 67 1016.4
20260507101255 65 157 11.0 11.0 0.00 0.00 0.00 67 1016.4
20260507100755 66 135 5.0 11.0 0.00 0.00 0.00 66 1016.3
20260507100255 66 157 7.0 13.0 0.00 0.00 0.00 66 1016.3
20260507095755 66 135 9.0 11.0 0.00 0.00 0.00 65 1016.4
20260507095255 66 157 9.0 10.0 0.00 0.00 0.00 66 1016.3
20260507094755 66 135 3.0 14.0 0.00 0.00 0.00 66 1016.4
20260507094255 66 157 14.0 14.0 0.00 0.00 0.00 64 1016.4
20260507093755 66 135 4.0 15.0 0.00 0.00 0.00 64 1016.4
20260507093255 67 180 7.0 9.0 0.00 0.00 0.00 64 1016.4
20260507092755 67 135 6.0 10.0 0.00 0.00 0.00 64 1016.4
20260507092255 66 157 3.0 11.0 0.00 0.00 0.00 64 1016.3
20260507091755 67 135 10.0 10.0 0.00 0.00 0.00 64 1016.3
20260507091255 68 135 9.0 16.0 0.00 0.00 0.00 64 1016.4
20260507090755 67 135 6.0 11.0 0.00 0.00 0.00 64 1016.4
20260507090255 68 157 6.0 11.0 0.00 0.00 0.00 64 1016.3
20260507085755 67 157 6.0 15.0 0.00 0.00 0.00 65 1016.3
20260507085255 67 157 15.0 15.0 0.00 0.00 0.00 65 1016.3
20260507084755 67 90 5.0 10.0 0.00 0.00 0.00 65 1016.4
20260507084255 67 135 6.0 11.0 0.00 0.00 0.00 66 1016.3
20260507083755 67 157 4.0 11.0 0.00 0.00 0.00 66 1016.2
20260507083255 67 112 5.0 10.0 0.00 0.00 0.00 65 1016.2
20260507082755 66 157 5.0 8.0 0.00 0.00 0.00 66 1016.3
20260507082255 66 157 8.0 12.0 0.00 0.00 0.00 67 1016.3
20260507081755 66 157 5.0 12.0 0.00 0.00 0.00 68 1016.4
20260507081255 66 135 4.0 12.0 0.00 0.00 0.00 67 1016.4
20260507080755 66 157 3.0 13.0 0.00 0.00 0.00 67 1016.3
20260507080255 66 180 6.0 11.0 0.00 0.00 0.00 67 1016.3
20260507075755 66 135 5.0 11.0 0.00 0.00 0.00 67 1016.3
20260507075255 66 157 8.0 12.0 0.00 0.00 0.00 67 1016.3
20260507074755 66 157 10.0 10.0 0.00 0.00 0.00 66 1016.1
20260507074255 66 157 3.0 10.0 0.00 0.00 0.00 66 1016.1
20260507073755 66 157 5.0 10.0 0.00 0.00 0.00 68 1016.1
20260507073255 66 157 7.0 9.0 0.00 0.00 0.00 67 1016.1
20260507072755 66 135 6.0 10.0 0.00 0.00 0.00 68 1016.1
20260507072255 66 157 6.0 10.0 0.00 0.00 0.00 68 1016.1
20260507071755 66 157 4.0 12.0 0.00 0.00 0.00 68 1016.2
20260507071255 66 157 6.0 9.0 0.00 0.00 0.00 68 1016.1
20260507070755 65 180 8.0 9.0 0.00 0.00 0.00 67 1016.0
20260507070255 66 157 6.0 10.0 0.00 0.00 0.00 67 1016.1
20260507065755 66 112 7.0 9.0 0.00 0.00 0.00 67 1016.0
20260507065255 66 135 4.0 8.0 0.00 0.00 0.00 67 1016.0
20260507064755 66 157 7.0 8.0 0.00 0.00 0.00 67 1015.9
20260507064255 66 157 6.0 8.0 0.00 0.00 0.00 68 1015.8
20260507063755 66 157 5.0 9.0 0.00 0.00 0.00 66 1015.9
20260507063255 67 135 6.0 7.0 0.00 0.00 0.00 67 1015.9
20260507062755 66 180 5.0 6.0 0.00 0.00 0.00 66 1015.9
20260507062255 67 157 3.0 6.0 0.00 0.00 0.00 65 1015.9
20260507061755 66 135 3.0 7.0 0.00 0.00 0.00 66 1015.8
20260507061255 66 157 4.0 7.0 0.00 0.00 0.00 68 1015.8
20260507060755 66 157 4.0 8.0 0.00 0.00 0.00 69 1015.8
20260507060255 65 157 6.0 6.0 0.00 0.00 0.00 70 1015.7
20260507055755 64 112 2.0 7.0 0.00 0.00 0.00 71 1015.8
20260507055255 63 180 3.0 7.0 0.00 0.00 0.00 71 1015.9
20260507054755 63 157 4.0 8.0 0.00 0.00 0.00 72 1015.9
20260507054255 63 202 5.0 8.0 0.00 0.00 0.00 72 1015.8
20260507053755 62 202 7.0 8.0 0.00 0.00 0.00 75 1015.7
20260507053255 60 180 2.0 10.0 0.00 0.00 0.00 77 1015.7
20260507052755 59 180 7.0 7.0 0.00 0.00 0.00 78 1015.6
20260507052255 58 157 4.0 8.0 0.00 0.00 0.00 78 1015.6
20260507051756 58 157 5.0 9.0 0.00 0.00 0.00 78 1015.6
20260507051255 58 157 3.0 7.0 0.00 0.00 0.00 77 1015.5
20260507050755 59 180 3.0 6.0 0.00 0.00 0.00 77 1015.5
20260507050255 60 202 4.0 6.0 0.00 0.00 0.00 76 1015.6
20260507045755 59 180 2.0 6.0 0.00 0.00 0.00 78 1015.5
20260507045255 58 180 4.0 7.0 0.00 0.00 0.00 81 1015.5
20260507044755 57 180 0.0 5.0 0.00 0.00 0.00 82 1015.4
20260507044255 56 180 3.0 5.0 0.00 0.00 0.00 84 1015.4
20260507043755 55 202 4.0 4.0 0.00 0.00 0.00 86 1015.4
20260507043255 53 157 2.0 3.0 0.00 0.00 0.00 88 1015.4
20260507042755 51 202 2.0 4.0 0.00 0.00 0.00 89 1015.4
20260507042255 51 180 3.0 4.0 0.00 0.00 0.00 89 1015.5
20260507041755 50 202 1.0 2.0 0.00 0.00 0.00 89 1015.5
20260507041255 50 225 0.0 1.0 0.00 0.00 0.00 89 1015.4
20260507040755 50 202 0.0 1.0 0.00 0.00 0.00 89 1015.4
20260507040255 50 225 0.0 1.0 0.00 0.00 0.00 89 1015.4
20260507035755 50 225 0.0 2.0 0.00 0.00 0.00 89 1015.4
20260507035255 50 247 0.0 2.0 0.00 0.00 0.00 90 1015.3
20260507034755 50 202 2.0 5.0 0.00 0.00 0.00 90 1015.3
20260507034255 50 202 2.0 4.0 0.00 0.00 0.00 90 1015.2
20260507033755 50 225 2.0 5.0 0.00 0.00 0.00 90 1015.1
20260507033255 50 225 2.0 5.0 0.00 0.00 0.00 90 1015.1
20260507032755 50 270 0.0 3.0 0.00 0.00 0.00 90 1015.0
20260507032255 50 225 1.0 4.0 0.00 0.00 0.00 91 1015.1
20260507031755 50 225 2.0 6.0 0.00 0.00 0.00 91 1015.0
20260507031255 49 180 6.0 8.0 0.00 0.00 0.00 91 1014.9
20260507030755 49 202 6.0 8.0 0.00 0.00 0.00 91 1014.8
20260507030255 49 202 7.0 10.0 0.00 0.00 0.00 91 1014.8
20260507025755 49 202 5.0 9.0 0.00 0.00 0.00 92 1014.7
20260507025255 50 180 3.0 4.0 0.00 0.00 0.00 92 1014.7
20260507024755 49 157 2.0 8.0 0.00 0.00 0.00 92 1014.7
20260507024255 49 202 4.0 6.0 0.00 0.00 0.00 92 1014.7
20260507023755 49 180 4.0 9.0 0.00 0.00 0.00 92 1014.7
20260507023255 49 202 4.0 6.0 0.00 0.00 0.00 92 1014.7
20260507022756 50 202 3.0 8.0 0.00 0.00 0.00 92 1014.7
20260507022256 50 202 5.0 7.0 0.00 0.00 0.00 92 1014.7
20260507021755 49 202 2.0 6.0 0.00 0.00 0.00 93 1014.6
20260507021256 49 202 4.0 5.0 0.00 0.00 0.00 93 1014.6
20260507020756 49 225 3.0 6.0 0.00 0.00 0.00 93 1014.6
20260507020256 49 202 5.0 5.0 0.00 0.00 0.00 93 1014.6
20260507015756 49 157 1.0 9.0 0.00 0.00 0.00 93 1014.6
20260507015256 49 202 3.0 4.0 0.00 0.00 0.00 93 1014.5
20260507014756 49 202 4.0 7.0 0.00 0.00 0.00 93 1014.5
20260507014256 49 225 5.0 5.0 0.00 0.00 0.00 93 1014.5
20260507013756 49 202 2.0 6.0 0.00 0.00 0.00 93 1014.5
20260507013256 48 157 5.0 5.0 0.00 0.00 0.00 93 1014.6
20260507012756 48 202 0.0 1.0 0.00 0.00 0.00 93 1014.6
20260507012256 48 225 0.0 0.0 0.00 0.00 0.00 93 1014.5
20260507011756 48 247 0.0 0.0 0.00 0.00 0.00 93 1014.5
20260507011256 48 270 0.0 57.0 0.00 0.00 0.00 93 1014.5
20260507010756 48 180 57.0 57.0 0.00 0.00 0.00 93 1014.5
20260507010256 48 225 2.0 2.0 0.00 0.00 0.00 93 1014.5
20260507005756 48 225 1.0 1.0 0.00 0.00 0.00 93 1014.5
20260507005256 48 225 1.0 2.0 0.00 0.00 0.00 93 1014.5
20260507004756 47 202 2.0 2.0 0.00 0.00 0.00 93 1014.5
20260507004256 47 247 0.0 2.0 0.00 0.00 0.00 93 1014.3
20260507003756 47 247 0.0 2.0 0.00 0.00 0.00 93 1014.3
20260507003256 47 247 2.0 2.0 0.00 0.00 0.00 93 1014.3
20260507002756 47 202 2.0 3.0 0.00 0.00 0.00 93 1014.3
20260507002256 47 202 1.0 2.0 0.00 0.00 0.00 93 1014.2
20260507001756 46 202 2.0 2.0 0.00 0.00 0.00 93 1014.2
20260507001256 48 202 0.0 0.0 0.00 0.00 0.00 93 1014.3
20260507000756 48 202 0.0 2.0 0.00 0.00 0.00 93 1014.3
20260507000256 49 202 2.0 2.0 0.00 0.00 0.00 93 1014.3
20260506235756 49 202 2.0 2.0 0.00 0.00 0.00 93 1014.3
20260506235256 49 202 2.0 5.0 0.00 0.00 0.00 93 1014.3
20260506234756 48 225 4.0 7.0 0.00 0.00 0.00 92 1014.3
20260506234256 47 180 2.0 2.0 0.00 0.00 0.00 92 1014.4
20260506233756 47 225 1.0 1.0 0.00 0.00 0.00 92 1014.4
20260506233256 47 202 0.0 2.0 0.00 0.00 0.00 92 1014.4
20260506232756 46 202 2.0 2.0 0.00 0.00 0.00 92 1014.4
20260506232256 46 180 0.0 2.0 0.00 0.00 0.00 92 1014.5
20260506231756 46 247 0.0 0.0 0.00 0.00 0.00 92 1014.4
20260506231256 46 225 0.0 1.0 0.00 0.00 0.00 92 1014.5
20260506230756 46 225 0.0 2.0 0.00 0.00 0.00 92 1014.5
20260506230256 46 225 2.0 2.0 0.00 0.00 0.00 92 1014.5
20260506225756 46 247 1.0 2.0 0.00 0.00 0.00 92 1014.5
20260506225256 46 202 0.0 3.0 0.00 0.00 0.00 91 1014.5
20260506224756 46 247 1.0 1.0 0.00 0.00 0.00 92 1014.6
20260506224256 46 247 1.0 1.0 0.00 0.00 0.00 91 1014.6
20260506223756 46 247 1.0 2.0 0.00 0.00 0.00 91 1014.8
20260506223256 46 225 0.0 1.0 0.00 0.00 0.00 91 1014.6
20260506222756 46 247 0.0 0.0 0.00 0.00 0.00 91 1014.6